Regional Weather Roundup
Issued by NWS Upton, NY

Current Version | Previous Version | Graphics & Text | Print | Product List | Glossary Off
Versions: 1 2 3 4 5 6 7 8 9 10 11 12 13 14 15 16 17 18 19 20 21 22 23 24 25 26 27 28 29 30 31 32 33 34 35 36 37 38 39 40 41 42 43 44 45 46 47 48 49 50

868
ASUS41 KOKX 231205
RWROKX

Regional Weather Roundup
National Weather Service New York NY
800 AM EDT MON APR 23 2018

Note: "FAIR" indicates few or no clouds below 12,000 feet with no
significant weather and/or obstructions to visibility.

NYZ071-072-176-178-NJZ106-104-231300-
New York City Metro Area

CITY           SKY/WX    TMP DP  RH WIND       PRES   REMARKS
Central Park   FAIR      51  25  36 NE5       30.49R
Bronx Bot Gard   N/A     50  25  37 E3        30.48S
Bronx Lehman C   N/A     50  25  37 E7          N/A
LaGuardia Arpt FAIR      49  30  48 NE8       30.47R
Queens College   N/A     48  32  53 N3          N/A
Kennedy Intl   FAIR      49  34  56 NE9       30.47R
Breezy Point     N/A     46 N/A N/A SW2         N/A
Brooklyn Coll    N/A     52  28  40 N5          N/A
Staten Island    N/A     48  32  53 N3          N/A
Newark/Liberty FAIR      50  31  48 N9        30.46R
Teterboro      FAIR      48  30  49 N7        30.47R
$$

NYZ177-179-078>081-231300-
Long Island New York

CITY           SKY/WX    TMP DP  RH WIND       PRES   REMARKS
Jones Beach      N/A     45 N/A N/A NE7         N/A
Wantagh          N/A     48  32  53 NE7         N/A
Hempstead        N/A     48  32  53 NE3       30.48R
Matinecock Pt    N/A     45 N/A N/A E12         N/A
Farmingdale    FAIR      49  32  52 NE7       30.46S
MacArthur/ISP  FAIR      49  34  56 N8        30.47R
Stony Brook      N/A     48  34  57 E5          N/A
Shirley        FAIR      47  33  58 N5        30.48R
Mt Sinai Harb    N/A    N/A N/A N/A NE2         N/A
Westhampton    FAIR      51  36  56 NE7       30.49R
East Hampton   FAIR      41  34  75 CALM      30.48R
Southold         N/A     46  34  61 E6          N/A
Montauk          N/A     49  30  48 NE6       30.49R
$$

NYZ052-065-067-231300-
Hudson Valley

CITY           SKY/WX    TMP DP  RH WIND       PRES   REMARKS
White Plains   FAIR      50  19  29 E9        30.46R
Larchmont Harb   N/A     43 N/A N/A NE6         N/A
Croton On Huds   N/A     45 N/A N/A S2          N/A
Somers           N/A     46  23  39 NE3         N/A
Brewster         N/A     45  23  42 N2          N/A
Newburgh       SUNNY     43  28  56 VRB6      30.49R
Montgomery     FAIR      41  29  62 N5        30.47S HAZE
Otisville        N/A     45  28  53 E2          N/A
Warwick          N/A     39  30  70 SW1         N/A
Suffern          N/A     50  19  29 NE3         N/A
Poughkeepsie   FAIR      38  28  67 CALM      30.49R
Albany         FAIR      41  26  55 CALM      30.51R
$$

NJZ001-105-106-008-010-013-015-019>022-104-231300-
New Jersey

CITY           SKY/WX    TMP DP  RH WIND       PRES   REMARKS
Newark/Liberty FAIR      50  31  48 N9        30.46R
Teterboro      FAIR      48  30  49 N7        30.47R
Caldwell       FAIR      47  30  51 NE3       30.47R
Somerville     FAIR      41  32  70 CALM      30.45R
Linden         FAIR      50  30  46 CALM      30.47S
Perth Amboy      N/A     45 N/A N/A W2          N/A
Sussex         FAIR      38  31  76 CALM      30.48R
Andover          N/A     43  30  60 CALM      30.47R
Trenton        FAIR      50  32  50 N5        30.46R
Millville      FAIR      44  40  85 CALM      30.47R
Atlantic City  FAIR      47  42  83 CALM      30.47R
Wrightstown    FAIR      44  38  79 CALM      30.44R
Toms River     FAIR      42  35  76 CALM      30.48R
Belmar         FAIR      47  35  63 NW3       30.47R
$$

PAZ047>061-062-071-231300-
Eastern Pennsylvania

CITY           SKY/WX    TMP DP  RH WIND       PRES   REMARKS
Philadelphia   FAIR      48  40  73 CALM      30.46R
Allentown      FAIR      46  32  58 NE5       30.46R
Scranton       FAIR      43  22  43 E5        30.45R
$$

CTZ002-004>006-009-010-012-RIZ004-006-007-MAZ004-011-015-231300-
Southern New England

 In CT

CITY           SKY/WX    TMP DP  RH WIND       PRES   REMARKS
Bradley Intl   FAIR      43  25  49 NE6       30.50R
Hartford       FAIR      43  25  49 N6        30.51R
Danbury        FAIR      41  29  62 CALM      30.49S
Wtrbury/Oxford FAIR      47  18  31 E7        30.48R
Norwalk Harbor   N/A     43 N/A N/A N7          N/A
Bridgeport     FAIR      49  27  42 NE8       30.49R
Meriden        FAIR      45  26  47 CALM      30.50R
New Haven      FAIR      48  27  44 N8        30.49R
Chester        FAIR      50  18  27 N5        30.49R
Groton         FAIR      48  25  40 N7        30.49R
Willimantic    FAIR      37  28  70 CALM      30.51R

 In RI

CITY           SKY/WX    TMP DP  RH WIND       PRES   REMARKS
Providence     FAIR      50  26  39 N5        30.50R
Block Island   FAIR      48  28  46 NE6       30.49R
Westerly       FAIR      47  29  49 NE3       30.49R

In MA

CITY           SKY/WX    TMP DP  RH WIND       PRES   REMARKS
Boston         FAIR      49  21  33 NW5       30.49R
Worcester      FAIR      48  19  31 N5        30.47R
Westfield      FAIR      39  26  59 CALM      30.50R
Provincetown   FAIR      46  36  68 N9        30.49R
Nantucket      FAIR      48  38  68 N14       30.46R
$$

ANZ330-335-338-340-345-350-353-355-231300-
Coastal Marine Observations


STATION/POSITION TIME  SKY/WX   TEMP    WIND        PRES    VSBY  WAVE
                                AIR SEA DIR/SP/G                  HT/PER
                 (UTC)          (F)     (DEG/KT/KT) (MB)    (MI)  (FT/S)
NY Harb Entrance 1150            45 46  270/  2/  4 1031.9          1/14
20 S Fire Island 1150            45 43  320/  4/  4 1031.8          1/15
23 SSW Montauk P 1150            48 43   90/  2/  2 1032.4          1/15
15 E Barnegat Li 1130               45                N/A           1/13
Hudson Canyon    1150            47 45  140/  4/  4 1031.8          1/15
Kings Point      1130            45 45   50/  5/  9 1032.5
Execution Rocks  NOT AVBL
Western LI Sound NOT AVBL
Central LI Sound 1145            44      20/  2/  4   N/A           0
Robbins Reef     1130            48     300/  3/  4 1032.0
$$


>>>>>>>>>>>>>>>>>>>>>>>>>>>> KEY <<<<<<<<<<<<<<<<<<<<<<<<<<<
>                                                          <
>     SKY/WX - Sky Condition/Present Weather               <
>     TMP    - Temperature in Fahrenheit                   <
>     DP     - Dew Point in Fahrenheit                     <
>     RH     - Relative Humidity in Percent                <
>     WIND   - Direction (from) and Speed in MPH           <
>     PRES   - Mean Sea Level Pressure (inches of Hg)      <
>     WCI    - Wind Chill Index                            <
>     VSB    - Visibility in Miles                         <
>     HX     - Heat Index                                  <
>     TC     - Temperature in Celsius                      <
>     VRB    - Varibale Wind Direction                     <
>                                                          <
>>>>>>>>>>>>>>>>>>>>>>>>>>>> KEY <<<<<<<<<<<<<<<<<<<<<<<<<<<




USA.gov is the U.S. government's official web portal to all federal, state and local government web resources and services.